Time,TemperatureF,DewpointF,PressureIn,WindDirection,WindDirectionDegrees,WindSpeedMPH,WindSpeedGustMPH,Humidity,HourlyPrecipIn,Conditions,Clouds,dailyrainin,SoftwareType,DateUTC
2013-06-15 00:00:00,69.3,55.3,29.98,SE,129,1.0,2.0,61,0.00,,CLR,0.00,VWS V14.01,2013-06-15 05:00:00,
2013-06-15 00:01:00,69.3,55.3,29.98,SE,141,0.0,2.0,61,0.00,,CLR,0.00,VWS V14.01,2013-06-15 05:01:00,
2013-06-15 00:06:00,69.3,55.7,29.98,SSE,148,1.0,2.0,62,0.00,,CLR,0.00,VWS V14.01,2013-06-15 05:06:00,
2013-06-15 00:10:00,69.2,55.6,29.98,SSE,150,1.0,2.0,62,0.00,,CLR,0.00,VWS V14.01,2013-06-15 05:10:00,
2013-06-15 00:11:00,69.2,55.6,29.98,SSE,157,0.0,2.0,62,0.00,,CLR,0.00,VWS V14.01,2013-06-15 05:11:00,
2013-06-15 00:16:00,69.1,55.5,29.99,SSE,166,1.0,2.0,62,0.00,,CLR,0.00,VWS V14.01,2013-06-15 05:16:00,
2013-06-15 00:20:00,69.1,56.0,29.99,SSE,167,0.0,2.0,63,0.00,,CLR,0.00,VWS V14.01,2013-06-15 05:20:00,
2013-06-15 00:21:00,69.1,55.5,30.00,SE,142,0.0,0.0,62,0.00,,CLR,0.00,VWS V14.01,2013-06-15 05:21:00,
2013-06-15 00:26:00,69.3,55.7,30.00,South,171,1.0,1.0,62,0.00,,CLR,0.00,VWS V14.01,2013-06-15 05:26:00,
2013-06-15 00:30:00,69.4,55.8,30.01,SSE,158,0.0,2.0,62,0.00,,CLR,0.00,VWS V14.01,2013-06-15 05:30:00,
2013-06-15 00:31:00,69.5,55.5,30.00,ESE,115,2.0,3.0,61,0.00,,CLR,0.00,VWS V14.01,2013-06-15 05:31:00,
2013-06-15 00:36:00,69.7,55.7,30.01,SE,131,0.0,3.0,61,0.00,,CLR,0.00,VWS V14.01,2013-06-15 05:36:00,
2013-06-15 00:40:00,69.7,55.7,30.01,SSE,151,0.0,3.0,61,0.00,,CLR,0.00,VWS V14.01,2013-06-15 05:40:00,
2013-06-15 00:41:00,69.7,55.7,30.01,SSE,150,0.0,1.0,61,0.00,,CLR,0.00,VWS V14.01,2013-06-15 05:41:00,
2013-06-15 00:47:00,69.6,55.6,30.02,SSE,150,0.0,1.0,61,0.00,,CLR,0.00,VWS V14.01,2013-06-15 05:47:00,
2013-06-15 00:50:00,69.6,55.6,30.02,SSE,151,0.0,1.0,61,0.00,,CLR,0.00,VWS V14.01,2013-06-15 05:50:00,
2013-06-15 00:52:00,69.5,55.9,30.01,SSE,150,0.0,0.0,62,0.00,,CLR,0.00,VWS V14.01,2013-06-15 05:52:00,
2013-06-15 00:57:00,69.4,55.8,30.02,SSE,150,0.0,0.0,62,0.00,,CLR,0.00,VWS V14.01,2013-06-15 05:57:00,
2013-06-15 01:00:00,69.4,56.7,30.02,SSE,150,0.0,0.0,64,0.00,,CLR,0.00,VWS V14.01,2013-06-15 06:00:00,
2013-06-15 01:02:00,69.2,57.0,30.02,SSE,150,0.0,0.0,65,0.00,,CLR,0.00,VWS V14.01,2013-06-15 06:02:00,
2013-06-15 01:07:00,68.7,56.0,30.02,SSE,150,0.0,0.0,64,0.00,,CLR,0.00,VWS V14.01,2013-06-15 06:07:00,
2013-06-15 01:10:00,68.6,56.0,30.02,SSE,151,0.0,0.0,64,0.00,,CLR,0.00,VWS V14.01,2013-06-15 06:10:00,
2013-06-15 01:12:00,68.4,55.8,30.02,SSE,151,0.0,0.0,64,0.00,,CLR,0.00,VWS V14.01,2013-06-15 06:12:00,
2013-06-15 01:17:00,68.2,56.0,30.02,SSE,151,0.0,0.0,65,0.00,,CLR,0.00,VWS V14.01,2013-06-15 06:17:00,
2013-06-15 01:20:00,68.1,55.9,30.02,SSE,150,0.0,0.0,65,0.00,,CLR,0.00,VWS V14.01,2013-06-15 06:20:00,
2013-06-15 01:22:00,68.0,55.8,30.02,SSE,151,0.0,0.0,65,0.00,,CLR,0.00,VWS V14.01,2013-06-15 06:22:00,
2013-06-15 01:27:00,67.9,56.1,30.02,SSE,151,0.0,0.0,66,0.00,,CLR,0.00,VWS V14.01,2013-06-15 06:27:00,
2013-06-15 01:30:00,67.9,55.7,30.02,SSE,150,0.0,0.0,65,0.00,,CLR,0.00,VWS V14.01,2013-06-15 06:30:00,
2013-06-15 01:32:00,68.0,55.4,30.02,SE,142,0.0,0.0,64,0.00,,CLR,0.00,VWS V14.01,2013-06-15 06:32:00,
2013-06-15 01:37:00,68.1,55.5,30.02,ESE,113,0.0,0.0,64,0.00,,CLR,0.00,VWS V14.01,2013-06-15 06:37:00,
2013-06-15 01:40:00,68.2,55.6,30.02,East,97,0.0,0.0,64,0.00,,CLR,0.00,VWS V14.01,2013-06-15 06:40:00,
2013-06-15 01:42:00,68.3,55.2,30.02,East,101,0.0,0.0,63,0.00,,CLR,0.00,VWS V14.01,2013-06-15 06:42:00,
2013-06-15 01:48:00,68.5,55.4,30.02,East,96,0.0,0.0,63,0.00,,CLR,0.00,VWS V14.01,2013-06-15 06:48:00,
2013-06-15 01:50:00,68.5,55.4,30.02,East,101,0.0,0.0,63,0.00,,CLR,0.00,VWS V14.01,2013-06-15 06:50:00,
2013-06-15 01:53:00,68.5,55.4,30.02,SE,139,0.0,0.0,63,0.00,,CLR,0.00,VWS V14.01,2013-06-15 06:53:00,
2013-06-15 01:58:00,68.4,55.8,30.02,SE,134,0.0,0.0,64,0.00,,CLR,0.00,VWS V14.01,2013-06-15 06:58:00,
2013-06-15 02:00:00,68.4,55.8,30.02,SSE,162,0.0,0.0,64,0.00,,CLR,0.00,VWS V14.01,2013-06-15 07:00:00,
2013-06-15 02:03:00,68.5,55.4,30.02,SSE,159,0.0,0.0,63,0.00,,CLR,0.00,VWS V14.01,2013-06-15 07:03:00,
2013-06-15 02:08:00,68.4,55.8,30.02,SSE,159,0.0,2.0,64,0.00,,CLR,0.00,VWS V14.01,2013-06-15 07:08:00,
2013-06-15 02:10:00,68.4,55.3,30.02,SSE,160,1.0,2.0,63,0.00,,CLR,0.00,VWS V14.01,2013-06-15 07:10:00,
2013-06-15 02:13:00,68.3,55.7,30.02,South,169,0.0,2.0,64,0.00,,CLR,0.00,VWS V14.01,2013-06-15 07:13:00,
2013-06-15 02:18:00,68.1,55.9,30.01,SSE,155,0.0,2.0,65,0.00,,CLR,0.00,VWS V14.01,2013-06-15 07:18:00,
2013-06-15 02:20:00,68.1,55.9,30.01,SSE,155,0.0,2.0,65,0.00,,CLR,0.00,VWS V14.01,2013-06-15 07:20:00,
2013-06-15 02:23:00,68.0,55.8,30.01,SSE,155,0.0,0.0,65,0.00,,CLR,0.00,VWS V14.01,2013-06-15 07:23:00,
2013-06-15 02:28:00,68.1,55.9,30.01,SSE,155,0.0,0.0,65,0.00,,CLR,0.00,VWS V14.01,2013-06-15 07:28:00,
2013-06-15 02:30:00,68.1,55.9,30.01,SSE,155,0.0,0.0,65,0.00,,CLR,0.00,VWS V14.01,2013-06-15 07:30:00,
2013-06-15 02:33:00,68.1,55.5,30.01,SSE,155,0.0,0.0,64,0.00,,CLR,0.00,VWS V14.01,2013-06-15 07:33:00,
2013-06-15 02:38:00,68.1,55.5,30.00,SSE,149,0.0,0.0,64,0.00,,CLR,0.00,VWS V14.01,2013-06-15 07:38:00,
2013-06-15 02:40:00,68.2,55.6,30.00,SSE,149,0.0,1.0,64,0.00,,CLR,0.00,VWS V14.01,2013-06-15 07:40:00,
2013-06-15 02:43:00,68.2,55.6,30.00,SSE,149,0.0,0.0,64,0.00,,CLR,0.00,VWS V14.01,2013-06-15 07:43:00,
2013-06-15 02:48:00,68.3,55.7,30.00,SSE,148,1.0,1.0,64,0.00,,CLR,0.00,VWS V14.01,2013-06-15 07:48:00,
2013-06-15 02:50:00,68.3,55.7,30.00,SSE,148,1.0,2.0,64,0.00,,CLR,0.00,VWS V14.01,2013-06-15 07:50:00,
2013-06-15 02:53:00,68.3,55.7,30.00,SSE,163,0.0,2.0,64,0.00,,CLR,0.00,VWS V14.01,2013-06-15 07:53:00,
2013-06-15 02:59:00,68.2,56.0,29.99,SSE,155,2.0,2.0,65,0.00,,CLR,0.00,VWS V14.01,2013-06-15 07:59:00,
2013-06-15 03:00:00,68.2,56.0,29.99,SSE,162,2.0,3.0,65,0.00,,CLR,0.00,VWS V14.01,2013-06-15 08:00:00,
2013-06-15 03:04:00,68.0,55.8,29.99,South,172,0.0,2.0,65,0.00,,CLR,0.00,VWS V14.01,2013-06-15 08:04:00,
2013-06-15 03:09:00,68.1,56.3,29.99,SSE,160,1.0,1.0,66,0.00,,CLR,0.00,VWS V14.01,2013-06-15 08:09:00,
2013-06-15 03:10:00,68.1,55.9,29.99,SSE,160,1.0,2.0,65,0.00,,CLR,0.00,VWS V14.01,2013-06-15 08:10:00,
2013-06-15 03:14:00,68.1,56.3,29.99,SE,134,1.0,2.0,66,0.00,,CLR,0.00,VWS V14.01,2013-06-15 08:14:00,
2013-06-15 03:19:00,68.1,56.3,29.99,SE,134,1.0,2.0,66,0.00,,CLR,0.00,VWS V14.01,2013-06-15 08:19:00,
2013-06-15 03:20:00,68.1,56.3,29.99,SSE,152,2.0,4.0,66,0.00,,CLR,0.00,VWS V14.01,2013-06-15 08:20:00,
2013-06-15 03:24:00,68.1,56.3,29.99,SE,145,1.0,2.0,66,0.00,,CLR,0.00,VWS V14.01,2013-06-15 08:24:00,
2013-06-15 03:29:00,68.2,56.4,30.00,South,172,3.0,3.0,66,0.00,,CLR,0.00,VWS V14.01,2013-06-15 08:29:00,
2013-06-15 03:30:00,68.2,56.4,30.00,SE,124,1.0,4.0,66,0.00,,CLR,0.00,VWS V14.01,2013-06-15 08:30:00,
2013-06-15 03:34:00,68.2,56.4,30.00,SSE,150,1.0,3.0,66,0.00,,CLR,0.00,VWS V14.01,2013-06-15 08:34:00,
2013-06-15 03:39:00,68.4,56.6,30.00,SSE,156,2.0,2.0,66,0.00,,CLR,0.00,VWS V14.01,2013-06-15 08:39:00,
2013-06-15 03:40:00,68.3,56.5,30.00,SE,139,1.0,4.0,66,0.00,,CLR,0.00,VWS V14.01,2013-06-15 08:40:00,
2013-06-15 03:44:00,68.4,56.6,30.01,SSE,151,0.0,3.0,66,0.00,,CLR,0.00,VWS V14.01,2013-06-15 08:44:00,
2013-06-15 03:49:00,68.4,57.0,30.03,SSE,150,1.0,1.0,67,0.00,,CLR,0.00,VWS V14.01,2013-06-15 08:49:00,
2013-06-15 03:50:00,68.5,57.1,30.02,SSE,151,1.0,3.0,67,0.00,,CLR,0.00,VWS V14.01,2013-06-15 08:50:00,
2013-06-15 03:55:00,68.2,56.8,30.04,WNW,290,0.0,1.0,67,0.00,,CLR,0.00,VWS V14.01,2013-06-15 08:55:00,
2013-06-15 04:00:00,68.4,57.0,30.05,WNW,286,0.0,0.0,67,0.00,,CLR,0.00,VWS V14.01,2013-06-15 09:00:00,
2013-06-15 04:05:00,68.4,57.0,30.05,WNW,287,0.0,0.0,67,0.00,,CLR,0.00,VWS V14.01,2013-06-15 09:05:00,
2013-06-15 04:10:00,68.4,57.0,30.05,WNW,289,0.0,0.0,67,0.00,,CLR,0.00,VWS V14.01,2013-06-15 09:10:00,
2013-06-15 04:15:00,68.4,57.0,30.05,WNW,288,0.0,0.0,67,0.00,,CLR,0.00,VWS V14.01,2013-06-15 09:15:00,
2013-06-15 04:20:00,68.3,57.3,30.05,WNW,287,0.0,1.0,68,0.00,,SCT085,0.00,VWS V14.01,2013-06-15 09:20:00,
2013-06-15 04:25:00,68.1,57.6,30.05,WNW,285,0.0,1.0,69,0.00,,SCT085,0.00,VWS V14.01,2013-06-15 09:25:00,
2013-06-15 04:30:00,68.0,57.5,30.05,WNW,285,0.0,0.0,69,0.00,,SCT085,0.00,VWS V14.01,2013-06-15 09:30:00,
2013-06-15 04:35:00,67.9,57.4,30.04,WNW,285,0.0,0.0,69,0.00,,SCT085,0.00,VWS V14.01,2013-06-15 09:35:00,
2013-06-15 04:40:00,67.9,57.8,30.05,WNW,285,0.0,0.0,70,0.00,,BKN085,0.00,VWS V14.01,2013-06-15 09:40:00,
2013-06-15 04:45:00,68.0,57.9,30.05,WNW,285,0.0,0.0,70,0.00,,BKN085,0.00,VWS V14.01,2013-06-15 09:45:00,
2013-06-15 04:50:00,68.0,57.9,30.05,WNW,285,0.0,0.0,70,0.00,,BKN085,0.00,VWS V14.01,2013-06-15 09:50:00,
2013-06-15 04:55:00,68.0,58.3,30.04,WNW,285,0.0,0.0,71,0.00,,BKN085,0.00,VWS V14.01,2013-06-15 09:55:00,
2013-06-15 05:00:00,68.1,58.3,30.05,WNW,285,0.0,0.0,71,0.00,,CLR,0.00,VWS V14.01,2013-06-15 10:00:00,
2013-06-15 05:01:00,68.1,58.3,30.04,WNW,285,0.0,0.0,71,0.00,,OVC085,0.00,VWS V14.01,2013-06-15 10:01:00,
2013-06-15 05:06:00,68.1,58.7,30.04,SSW,197,0.0,1.0,72,0.00,,OVC085,0.00,VWS V14.01,2013-06-15 10:06:00,
2013-06-15 05:10:00,68.2,58.8,30.04,WSW,240,0.0,2.0,72,0.00,,CLR,0.00,VWS V14.01,2013-06-15 10:10:00,
2013-06-15 05:11:00,68.3,58.9,30.04,WSW,240,1.0,2.0,72,0.00,,OVC085,0.00,VWS V14.01,2013-06-15 10:11:00,
2013-06-15 05:16:00,68.5,59.1,30.05,West,260,1.0,2.0,72,0.00,,OVC085,0.00,VWS V14.01,2013-06-15 10:16:00,
2013-06-15 05:20:00,68.6,59.2,30.04,WSW,246,1.0,4.0,72,0.00,,CLR,0.00,VWS V14.01,2013-06-15 10:20:00,
2013-06-15 05:21:00,68.7,59.3,30.04,South,187,1.0,2.0,72,0.00,,OVC095,0.00,VWS V14.01,2013-06-15 10:21:00,
2013-06-15 05:26:00,68.7,59.7,30.04,SW,226,1.0,3.0,73,0.00,,OVC095,0.00,VWS V14.01,2013-06-15 10:26:00,
2013-06-15 05:30:00,68.7,59.7,30.03,South,172,1.0,5.0,73,0.00,,CLR,0.00,VWS V14.01,2013-06-15 10:30:00,
2013-06-15 05:31:00,68.7,60.1,30.03,SSE,153,1.0,5.0,74,0.00,,OVC095,0.00,VWS V14.01,2013-06-15 10:31:00,
2013-06-15 05:36:00,68.6,60.0,30.02,SE,139,1.0,5.0,74,0.00,,OVC095,0.00,VWS V14.01,2013-06-15 10:36:00,
2013-06-15 05:40:00,68.6,60.0,30.02,WSW,257,0.0,5.0,74,0.00,,CLR,0.00,VWS V14.01,2013-06-15 10:40:00,
2013-06-15 05:41:00,68.6,60.0,30.02,SSW,205,0.0,2.0,74,0.00,,OVC095,0.00,VWS V14.01,2013-06-15 10:41:00,
2013-06-15 05:46:00,68.6,60.0,30.01,SSE,157,1.0,3.0,74,0.00,,OVC095,0.00,VWS V14.01,2013-06-15 10:46:00,
2013-06-15 05:50:00,68.6,60.0,30.01,SSE,153,0.0,3.0,74,0.00,,CLR,0.00,VWS V14.01,2013-06-15 10:50:00,
2013-06-15 05:51:00,68.5,60.3,30.00,SSE,150,3.0,4.0,75,0.00,,OVC095,0.00,VWS V14.01,2013-06-15 10:51:00,
2013-06-15 05:56:00,68.5,60.3,30.00,SE,141,1.0,4.0,75,0.00,,OVC095,0.00,VWS V14.01,2013-06-15 10:56:00,
2013-06-15 06:00:00,68.6,60.4,30.00,SSE,162,2.0,4.0,75,0.00,,CLR,0.00,VWS V14.01,2013-06-15 11:00:00,
2013-06-15 06:01:00,68.7,60.5,29.99,South,178,3.0,3.0,75,0.00,,OVC080,0.00,VWS V14.01,2013-06-15 11:01:00,
2013-06-15 06:07:00,68.8,60.6,29.98,SSE,155,1.0,4.0,75,0.00,,OVC080,0.00,VWS V14.01,2013-06-15 11:07:00,
2013-06-15 06:10:00,68.8,60.6,29.98,SSE,149,2.0,4.0,75,0.00,,CLR,0.00,VWS V14.01,2013-06-15 11:10:00,
2013-06-15 06:12:00,68.9,60.7,29.97,SE,129,2.0,6.0,75,0.00,,OVC080,0.00,VWS V14.01,2013-06-15 11:12:00,
2013-06-15 06:17:00,68.9,60.7,29.96,SSE,166,2.0,6.0,75,0.00,,OVC080,0.00,VWS V14.01,2013-06-15 11:17:00,
2013-06-15 06:20:00,68.9,60.7,29.95,SE,129,3.0,6.0,75,0.00,,CLR,0.00,VWS V14.01,2013-06-15 11:20:00,
2013-06-15 06:22:00,68.9,60.7,29.95,ESE,113,3.0,5.0,75,0.00,,BKN090,0.00,VWS V14.01,2013-06-15 11:22:00,
2013-06-15 06:27:00,68.9,61.0,29.93,SW,217,4.0,10.0,76,0.00,,BKN090,0.00,VWS V14.01,2013-06-15 11:27:00,
2013-06-15 06:30:00,68.9,61.0,29.92,SSE,163,4.0,10.0,76,0.00,,CLR,0.00,VWS V14.01,2013-06-15 11:30:00,
2013-06-15 06:32:00,68.8,60.9,29.93,SW,226,1.0,8.0,76,0.00,,BKN090,0.00,VWS V14.01,2013-06-15 11:32:00,
2013-06-15 06:37:00,68.9,61.0,29.96,WSW,245,0.0,8.0,76,0.00,,BKN090,0.00,VWS V14.01,2013-06-15 11:37:00,
2013-06-15 06:40:00,68.9,61.4,29.96,ESE,122,1.0,8.0,77,0.00,,CLR,0.00,VWS V14.01,2013-06-15 11:40:00,
2013-06-15 06:42:00,68.9,61.4,29.95,SE,124,2.0,6.0,77,0.00,,SCT090,0.00,VWS V14.01,2013-06-15 11:42:00,
2013-06-15 06:47:00,69.0,61.5,29.95,SW,225,0.0,9.0,77,0.00,,SCT090,0.00,VWS V14.01,2013-06-15 11:47:00,
2013-06-15 06:50:00,69.0,61.5,29.95,SE,135,1.0,9.0,77,0.00,,CLR,0.00,VWS V14.01,2013-06-15 11:50:00,
2013-06-15 06:52:00,68.9,61.4,29.95,SSE,151,4.0,4.0,77,0.00,,SCT090,0.00,VWS V14.01,2013-06-15 11:52:00,
2013-06-15 06:57:00,68.7,61.6,29.93,SE,136,3.0,6.0,78,0.00,,SCT090,0.00,VWS V14.01,2013-06-15 11:57:00,
2013-06-15 07:00:00,68.6,61.5,29.93,South,181,4.0,6.0,78,0.00,,CLR,0.00,VWS V14.01,2013-06-15 12:00:00,
2013-06-15 07:02:00,68.4,61.3,29.94,SSE,155,1.0,6.0,78,0.00,,-RA,0.00,VWS V14.01,2013-06-15 12:02:00,
2013-06-15 07:07:00,68.4,61.3,29.94,South,170,6.0,8.0,78,0.00,,-RA,0.00,VWS V14.01,2013-06-15 12:07:00,
2013-06-15 07:10:00,68.4,61.3,29.94,ESE,115,4.0,8.0,78,0.00,,CLR,0.00,VWS V14.01,2013-06-15 12:10:00,
2013-06-15 07:12:00,68.6,61.5,29.94,SW,224,2.0,7.0,78,0.00,,-RA,0.00,VWS V14.01,2013-06-15 12:12:00,
2013-06-15 07:17:00,68.8,61.7,29.94,SSE,165,1.0,7.0,78,0.00,,-RA,0.00,VWS V14.01,2013-06-15 12:17:00,
2013-06-15 07:20:00,68.8,61.7,29.94,SE,135,2.0,7.0,78,0.00,,CLR,0.00,VWS V14.01,2013-06-15 12:20:00,
2013-06-15 07:23:00,69.0,61.9,29.94,SSW,207,4.0,5.0,78,0.00,,-RA,0.00,VWS V14.01,2013-06-15 12:23:00,
2013-06-15 07:28:00,69.3,61.8,29.95,SSE,159,4.0,8.0,77,0.00,,-RA,0.00,VWS V14.01,2013-06-15 12:28:00,
2013-06-15 07:30:00,69.3,61.8,29.95,SSW,211,2.0,8.0,77,0.00,,CLR,0.00,VWS V14.01,2013-06-15 12:30:00,
2013-06-15 07:33:00,69.4,61.9,29.95,SSW,210,1.0,5.0,77,0.00,,-RA,0.00,VWS V14.01,2013-06-15 12:33:00,
2013-06-15 07:38:00,69.6,62.1,29.95,SSE,166,2.0,7.0,77,0.00,,-RA,0.00,VWS V14.01,2013-06-15 12:38:00,
2013-06-15 07:40:00,69.6,62.1,29.95,SSE,158,0.0,7.0,77,0.00,,CLR,0.00,VWS V14.01,2013-06-15 12:40:00,
2013-06-15 07:43:00,69.6,62.1,29.96,SE,146,2.0,5.0,77,0.00,,SCT043,0.00,VWS V14.01,2013-06-15 12:43:00,
2013-06-15 07:48:00,69.7,62.2,29.96,SE,143,4.0,7.0,77,0.00,,SCT043,0.00,VWS V14.01,2013-06-15 12:48:00,
2013-06-15 07:50:00,69.7,62.2,29.96,SW,221,3.0,7.0,77,0.00,,CLR,0.00,VWS V14.01,2013-06-15 12:50:00,
2013-06-15 07:53:00,69.8,62.3,29.96,WSW,257,1.0,5.0,77,0.00,,SCT043,0.00,VWS V14.01,2013-06-15 12:53:00,
2013-06-15 07:58:00,69.8,62.3,29.96,WSW,238,1.0,6.0,77,0.00,,SCT043,0.00,VWS V14.01,2013-06-15 12:58:00,
2013-06-15 08:00:00,69.8,62.3,29.96,WSW,238,1.0,6.0,77,0.00,,CLR,0.00,VWS V14.01,2013-06-15 13:00:00,
2013-06-15 08:03:00,69.9,62.4,29.96,SW,214,0.0,6.0,77,0.00,,CLR,0.00,VWS V14.01,2013-06-15 13:03:00,
2013-06-15 08:08:00,70.0,62.5,29.97,SW,233,0.0,0.0,77,0.00,,CLR,0.00,VWS V14.01,2013-06-15 13:08:00,
2013-06-15 08:10:00,70.0,62.5,29.97,SW,235,0.0,6.0,77,0.00,,CLR,0.00,VWS V14.01,2013-06-15 13:10:00,
2013-06-15 08:13:00,70.0,62.5,29.96,SSE,160,4.0,6.0,77,0.00,,CLR,0.00,VWS V14.01,2013-06-15 13:13:00,
2013-06-15 08:18:00,70.1,62.6,29.97,SW,233,3.0,3.0,77,0.00,,CLR,0.00,VWS V14.01,2013-06-15 13:18:00,
2013-06-15 08:20:00,70.1,62.6,29.96,SSE,162,3.0,6.0,77,0.00,,CLR,0.00,VWS V14.01,2013-06-15 13:20:00,
2013-06-15 08:23:00,70.3,62.4,29.98,SW,226,1.0,4.0,76,0.00,,SCT110,0.00,VWS V14.01,2013-06-15 13:23:00,
2013-06-15 08:29:00,70.5,62.6,29.98,WSW,258,4.0,5.0,76,0.00,,SCT110,0.00,VWS V14.01,2013-06-15 13:29:00,
2013-06-15 08:30:00,70.5,62.6,29.98,NW,311,1.0,5.0,76,0.00,,CLR,0.00,VWS V14.01,2013-06-15 13:30:00,
2013-06-15 08:34:00,70.7,62.4,29.97,SSW,195,1.0,5.0,75,0.00,,SCT110,0.00,VWS V14.01,2013-06-15 13:34:00,
2013-06-15 08:39:00,70.8,62.5,29.98,West,265,1.0,3.0,75,0.00,,SCT110,0.00,VWS V14.01,2013-06-15 13:39:00,
2013-06-15 08:40:00,70.8,62.9,29.98,WSW,245,3.0,5.0,76,0.00,,CLR,0.00,VWS V14.01,2013-06-15 13:40:00,
2013-06-15 08:44:00,70.9,63.0,29.98,West,278,2.0,5.0,76,0.00,,SCT110,0.00,VWS V14.01,2013-06-15 13:44:00,
2013-06-15 08:49:00,70.9,63.0,29.98,WSW,240,2.0,3.0,76,0.00,,SCT110,0.00,VWS V14.01,2013-06-15 13:49:00,
2013-06-15 08:50:00,70.9,63.0,29.98,West,266,0.0,5.0,76,0.00,,CLR,0.00,VWS V14.01,2013-06-15 13:50:00,
2013-06-15 08:54:00,70.9,63.0,29.98,WNW,285,2.0,3.0,76,0.00,,SCT110,0.00,VWS V14.01,2013-06-15 13:54:00,
2013-06-15 08:59:00,70.9,63.0,29.98,SE,146,1.0,2.0,76,0.00,,SCT110,0.00,VWS V14.01,2013-06-15 13:59:00,
2013-06-15 09:00:00,70.9,63.0,29.98,WSW,258,2.0,5.0,76,0.00,,CLR,0.00,VWS V14.01,2013-06-15 14:00:00,
2013-06-15 09:04:00,71.0,63.1,29.98,WSW,249,1.0,5.0,76,0.00,,CLR,0.00,VWS V14.01,2013-06-15 14:04:00,
2013-06-15 09:09:00,71.2,63.3,29.98,West,278,1.0,2.0,76,0.00,,CLR,0.00,VWS V14.01,2013-06-15 14:09:00,
2013-06-15 09:10:00,71.2,63.3,29.98,West,276,1.0,5.0,76,0.00,,CLR,0.00,VWS V14.01,2013-06-15 14:10:00,
2013-06-15 09:14:00,71.5,63.2,29.98,West,278,2.0,3.0,75,0.00,,CLR,0.00,VWS V14.01,2013-06-15 14:14:00,
2013-06-15 09:19:00,71.8,63.5,29.98,SW,227,2.0,2.0,75,0.00,,CLR,0.00,VWS V14.01,2013-06-15 14:19:00,
2013-06-15 09:20:00,71.7,63.4,29.98,West,267,0.0,4.0,75,0.00,,CLR,0.00,VWS V14.01,2013-06-15 14:20:00,
2013-06-15 09:24:00,72.0,64.0,29.98,West,264,0.0,3.0,76,0.00,,CLR,0.00,VWS V14.01,2013-06-15 14:24:00,
2013-06-15 09:29:00,72.3,64.3,29.98,WSW,257,0.0,1.0,76,0.00,,CLR,0.00,VWS V14.01,2013-06-15 14:29:00,
2013-06-15 09:30:00,72.2,64.2,29.98,WSW,257,1.0,4.0,76,0.00,,CLR,0.00,VWS V14.01,2013-06-15 14:30:00,
2013-06-15 09:34:00,72.6,64.6,29.99,NNW,338,1.0,4.0,76,0.00,,CLR,0.00,VWS V14.01,2013-06-15 14:34:00,
2013-06-15 09:40:00,72.8,64.8,29.99,NNW,338,0.0,0.0,76,0.00,,CLR,0.00,VWS V14.01,2013-06-15 14:40:00,
2013-06-15 09:45:00,73.0,65.0,30.00,North,354,0.0,2.0,76,0.00,,CLR,0.00,VWS V14.01,2013-06-15 14:45:00,
2013-06-15 09:50:00,73.4,65.4,30.01,West,273,1.0,1.0,76,0.00,,CLR,0.00,VWS V14.01,2013-06-15 14:50:00,
2013-06-15 09:55:00,73.6,65.6,30.01,WNW,288,1.0,4.0,76,0.00,,CLR,0.00,VWS V14.01,2013-06-15 14:55:00,
2013-06-15 10:00:00,73.6,65.6,30.00,WSW,248,0.0,4.0,76,0.00,,CLR,0.00,VWS V14.01,2013-06-15 15:00:00,
2013-06-15 10:05:00,73.7,66.1,30.00,SW,222,2.0,6.0,77,0.00,,CLR,0.00,VWS V14.01,2013-06-15 15:05:00,
2013-06-15 10:10:00,74.3,66.6,30.00,West,269,1.0,5.0,77,0.00,,CLR,0.00,VWS V14.01,2013-06-15 15:10:00,
2013-06-15 10:15:00,74.7,66.6,30.00,WNW,295,0.0,5.0,76,0.00,,CLR,0.00,VWS V14.01,2013-06-15 15:15:00,
2013-06-15 10:20:00,75.1,67.0,30.00,West,267,1.0,3.0,76,0.00,,CLR,0.00,VWS V14.01,2013-06-15 15:20:00,
2013-06-15 10:25:00,75.5,67.4,30.00,West,281,1.0,5.0,76,0.00,,CLR,0.00,VWS V14.01,2013-06-15 15:25:00,
2013-06-15 10:30:00,75.3,66.1,30.00,SW,217,1.0,7.0,73,0.00,,CLR,0.00,VWS V14.01,2013-06-15 15:30:00,
2013-06-15 10:36:00,74.8,66.3,29.99,WNW,283,0.0,7.0,75,0.00,,CLR,0.00,VWS V14.01,2013-06-15 15:36:00,
2013-06-15 10:40:00,74.6,66.5,30.00,WSW,253,2.0,7.0,76,0.00,,CLR,0.00,VWS V14.01,2013-06-15 15:40:00,
2013-06-15 10:41:00,74.4,66.0,30.00,WSW,258,1.0,6.0,75,0.00,,CLR,0.00,VWS V14.01,2013-06-15 15:41:00,
2013-06-15 10:46:00,73.9,66.2,30.00,SW,236,4.0,8.0,77,0.00,,CLR,0.00,VWS V14.01,2013-06-15 15:46:00,
2013-06-15 10:50:00,73.7,66.1,30.00,West,276,1.0,8.0,77,0.00,,CLR,0.00,VWS V14.01,2013-06-15 15:50:00,
2013-06-15 10:51:00,73.5,65.9,29.99,WNW,298,2.0,7.0,77,0.00,,CLR,0.00,VWS V14.01,2013-06-15 15:51:00,
2013-06-15 10:56:00,73.2,65.9,29.99,West,271,2.0,7.0,78,0.00,,CLR,0.00,VWS V14.01,2013-06-15 15:56:00,
2013-06-15 11:00:00,73.0,65.7,29.99,WNW,294,2.0,7.0,78,0.00,,CLR,0.00,VWS V14.01,2013-06-15 16:00:00,
2013-06-15 11:01:00,72.9,66.0,29.99,SW,226,2.0,7.0,79,0.00,,CLR,0.00,VWS V14.01,2013-06-15 16:01:00,
2013-06-15 11:06:00,72.8,66.3,29.98,SW,231,1.0,7.0,80,0.00,,CLR,0.00,VWS V14.01,2013-06-15 16:06:00,
2013-06-15 11:10:00,72.8,66.3,29.98,WNW,283,4.0,7.0,80,0.00,,,0.00,VWS V14.01,2013-06-15 16:10:00,
2013-06-15 11:11:00,72.7,66.5,29.98,WNW,285,3.0,6.0,81,0.00,,CLR,0.00,VWS V14.01,2013-06-15 16:11:00,
2013-06-15 11:16:00,72.8,66.6,29.98,SSW,213,1.0,6.0,81,0.00,,CLR,0.00,VWS V14.01,2013-06-15 16:16:00,
2013-06-15 11:20:00,72.9,66.7,29.98,SSE,152,0.0,6.0,81,0.00,,CLR,0.00,VWS V14.01,2013-06-15 16:20:00,
2013-06-15 11:21:00,73.2,67.0,29.98,West,276,0.0,2.0,81,0.00,,SCT070,0.00,VWS V14.01,2013-06-15 16:21:00,
2013-06-15 11:26:00,73.5,67.0,29.98,SSW,195,1.0,5.0,80,0.00,,SCT070,0.00,VWS V14.01,2013-06-15 16:26:00,
2013-06-15 11:30:00,73.6,67.4,29.98,West,269,4.0,5.0,81,0.00,,,0.00,VWS V14.01,2013-06-15 16:30:00,
2013-06-15 11:31:00,73.9,67.7,29.98,WSW,245,1.0,4.0,81,0.00,,SCT070,0.00,VWS V14.01,2013-06-15 16:31:00,
2013-06-15 11:36:00,74.6,67.7,29.99,NW,321,2.0,6.0,79,0.00,,SCT070,0.00,VWS V14.01,2013-06-15 16:36:00,
2013-06-15 11:40:00,74.6,66.9,29.99,WNW,290,1.0,6.0,77,0.00,,CLR,0.00,VWS V14.01,2013-06-15 16:40:00,
2013-06-15 11:41:00,74.7,67.8,30.00,South,191,2.0,5.0,79,0.00,,BKN070,0.00,VWS V14.01,2013-06-15 16:41:00,
2013-06-15 11:47:00,74.7,67.0,30.00,West,269,3.0,5.0,77,0.00,,BKN070,0.00,VWS V14.01,2013-06-15 16:47:00,
2013-06-15 11:50:00,74.6,67.3,30.00,WNW,291,2.0,5.0,78,0.00,,,0.00,VWS V14.01,2013-06-15 16:50:00,
2013-06-15 11:52:00,74.3,67.4,30.00,WSW,252,4.0,6.0,79,0.00,,BKN070,0.00,VWS V14.01,2013-06-15 16:52:00,
2013-06-15 11:57:00,73.9,67.0,30.00,WNW,283,1.0,6.0,79,0.00,,BKN070,0.00,VWS V14.01,2013-06-15 16:57:00,
2013-06-15 12:00:00,73.9,67.3,30.00,WNW,284,3.0,6.0,80,0.00,,CLR,0.00,VWS V14.01,2013-06-15 17:00:00,
2013-06-15 12:02:00,73.8,67.2,30.00,West,281,3.0,4.0,80,0.00,,BKN070,0.00,VWS V14.01,2013-06-15 17:02:00,
2013-06-15 12:07:00,73.7,67.2,30.00,West,264,1.0,4.0,80,0.00,,BKN070,0.00,VWS V14.01,2013-06-15 17:07:00,
2013-06-15 12:10:00,73.7,67.2,30.00,SW,234,2.0,4.0,80,0.00,,CLR,0.00,VWS V14.01,2013-06-15 17:10:00,
2013-06-15 12:12:00,73.8,67.6,30.00,West,274,0.0,3.0,81,0.00,,BKN070,0.00,VWS V14.01,2013-06-15 17:12:00,
2013-06-15 12:17:00,73.7,67.5,29.99,West,265,1.0,3.0,81,0.00,,BKN070,0.00,VWS V14.01,2013-06-15 17:17:00,
2013-06-15 12:20:00,73.7,67.5,29.99,SE,145,1.0,3.0,81,0.00,,CLR,0.00,VWS V14.01,2013-06-15 17:20:00,
2013-06-15 12:22:00,73.7,67.9,29.99,West,266,0.0,2.0,82,0.00,,BKN070,0.00,VWS V14.01,2013-06-15 17:22:00,
2013-06-15 12:27:00,73.9,68.1,29.98,West,266,0.0,2.0,82,0.00,,BKN070,0.00,VWS V14.01,2013-06-15 17:27:00,
2013-06-15 12:30:00,74.0,68.2,29.98,West,264,0.0,2.0,82,0.00,,CLR,0.00,VWS V14.01,2013-06-15 17:30:00,
2013-06-15 12:32:00,74.2,68.0,29.98,SSE,162,0.0,4.0,81,0.00,,BKN070,0.00,VWS V14.01,2013-06-15 17:32:00,
2013-06-15 12:37:00,74.4,68.2,29.98,WSW,245,1.0,4.0,81,0.00,,BKN070,0.00,VWS V14.01,2013-06-15 17:37:00,
2013-06-15 12:40:00,74.4,68.2,29.98,West,278,1.0,4.0,81,0.00,,CLR,0.00,VWS V14.01,2013-06-15 17:40:00,
2013-06-15 12:42:00,74.5,68.3,29.99,NW,316,0.0,4.0,81,0.00,,BKN070,0.00,VWS V14.01,2013-06-15 17:42:00,
2013-06-15 12:47:00,74.6,68.4,29.99,South,179,2.0,4.0,81,0.00,,BKN070,0.00,VWS V14.01,2013-06-15 17:47:00,
2013-06-15 12:50:00,74.6,68.4,29.99,SSW,193,2.0,4.0,81,0.00,,CLR,0.00,VWS V14.01,2013-06-15 17:50:00,
2013-06-15 12:52:00,74.7,68.5,30.00,West,259,1.0,3.0,81,0.00,,BKN070,0.00,VWS V14.01,2013-06-15 17:52:00,
2013-06-15 12:57:00,74.4,68.2,30.00,SW,235,1.0,4.0,81,0.00,,BKN070,0.00,VWS V14.01,2013-06-15 17:57:00,
2013-06-15 13:00:00,74.4,68.2,30.00,WSW,250,2.0,4.0,81,0.00,,,0.00,VWS V14.01,2013-06-15 18:00:00,
2013-06-15 13:02:00,74.0,68.2,30.00,WSW,240,2.0,4.0,82,0.00,,BKN070,0.00,VWS V14.01,2013-06-15 18:02:00,
2013-06-15 13:08:00,73.7,68.2,30.00,WSW,242,2.0,5.0,83,0.00,,BKN070,0.00,VWS V14.01,2013-06-15 18:08:00,
2013-06-15 13:10:00,73.8,68.3,29.99,WSW,248,1.0,5.0,83,0.00,,CLR,0.00,VWS V14.01,2013-06-15 18:10:00,
2013-06-15 13:13:00,73.5,68.0,30.00,WNW,283,1.0,6.0,83,0.00,,BKN070,0.00,VWS V14.01,2013-06-15 18:13:00,
2013-06-15 13:18:00,73.5,68.0,30.00,WNW,290,1.0,6.0,83,0.00,,BKN070,0.00,VWS V14.01,2013-06-15 18:18:00,
2013-06-15 13:20:00,73.5,68.0,30.00,West,262,1.0,6.0,83,0.00,,CLR,0.00,VWS V14.01,2013-06-15 18:20:00,
2013-06-15 13:23:00,73.3,67.8,30.00,WSW,242,2.0,6.0,83,0.00,,BKN070,0.00,VWS V14.01,2013-06-15 18:23:00,
2013-06-15 13:28:00,73.2,67.7,30.00,NNE,19,1.0,7.0,83,0.00,,BKN070,0.00,VWS V14.01,2013-06-15 18:28:00,
2013-06-15 13:30:00,73.1,67.6,30.00,West,273,0.0,7.0,83,0.00,,CLR,0.00,VWS V14.01,2013-06-15 18:30:00,
2013-06-15 13:33:00,73.0,67.9,29.99,SW,229,3.0,3.0,84,0.00,,BKN070,0.00,VWS V14.01,2013-06-15 18:33:00,
2013-06-15 13:38:00,72.9,68.1,30.00,SSW,210,0.0,4.0,85,0.00,,BKN070,0.00,VWS V14.01,2013-06-15 18:38:00,
2013-06-15 13:40:00,72.9,68.1,30.00,WSW,245,2.0,4.0,85,0.00,,CLR,0.00,VWS V14.01,2013-06-15 18:40:00,
2013-06-15 13:43:00,72.8,68.0,30.00,West,259,1.0,4.0,85,0.00,,OVC070,0.00,VWS V14.01,2013-06-15 18:43:00,
2013-06-15 13:48:00,72.6,67.8,30.00,WNW,282,1.0,4.0,85,0.00,,OVC070,0.00,VWS V14.01,2013-06-15 18:48:00,
2013-06-15 13:50:00,72.6,67.8,30.00,WNW,282,1.0,4.0,85,0.00,,CLR,0.00,VWS V14.01,2013-06-15 18:50:00,
2013-06-15 13:53:00,72.2,67.4,30.00,SW,229,2.0,4.0,85,0.00,,OVC070,0.00,VWS V14.01,2013-06-15 18:53:00,
2013-06-15 13:58:00,72.0,67.6,30.00,WSW,250,1.0,1.0,86,0.00,,OVC070,0.00,VWS V14.01,2013-06-15 18:58:00,
2013-06-15 14:00:00,72.0,67.6,30.00,WSW,248,0.0,4.0,86,0.00,,CLR,0.00,VWS V14.01,2013-06-15 19:00:00,
2013-06-15 14:03:00,71.6,67.2,29.99,WSW,245,1.0,3.0,86,0.00,,BKN070,0.00,VWS V14.01,2013-06-15 19:03:00,
2013-06-15 14:08:00,71.3,67.2,29.98,SW,224,1.0,1.0,87,0.00,,BKN070,0.00,VWS V14.01,2013-06-15 19:08:00,
2013-06-15 14:10:00,71.3,67.2,29.99,SW,224,1.0,5.0,87,0.00,,CLR,0.00,VWS V14.01,2013-06-15 19:10:00,
2013-06-15 14:13:00,71.0,66.9,29.99,West,262,1.0,4.0,87,0.00,,BKN070,0.00,VWS V14.01,2013-06-15 19:13:00,
2013-06-15 14:18:00,70.8,67.1,29.98,SSE,162,1.0,1.0,88,0.00,,BKN070,0.00,VWS V14.01,2013-06-15 19:18:00,
2013-06-15 14:20:00,70.8,67.1,29.98,SSE,162,1.0,4.0,88,0.00,,CLR,0.00,VWS V14.01,2013-06-15 19:20:00,
2013-06-15 14:24:00,70.5,67.1,29.99,SW,220,0.0,3.0,89,0.00,,SCT110,0.00,VWS V14.01,2013-06-15 19:24:00,
2013-06-15 14:29:00,70.4,67.3,29.98,SW,214,0.0,0.0,90,0.00,,SCT110,0.00,VWS V14.01,2013-06-15 19:29:00,
2013-06-15 14:30:00,70.3,66.9,29.98,ESE,103,0.0,4.0,89,0.00,,CLR,0.00,VWS V14.01,2013-06-15 19:30:00,
2013-06-15 14:34:00,70.5,67.1,29.98,SSE,162,0.0,2.0,89,0.00,,SCT110,0.00,VWS V14.01,2013-06-15 19:34:00,
2013-06-15 14:39:00,70.6,67.5,29.99,WSW,250,1.0,1.0,90,0.00,,SCT110,0.00,VWS V14.01,2013-06-15 19:39:00,
2013-06-15 14:40:00,70.6,67.5,29.99,West,260,1.0,2.0,90,0.00,,CLR,0.00,VWS V14.01,2013-06-15 19:40:00,
2013-06-15 14:44:00,70.7,67.6,29.98,South,172,1.0,3.0,90,0.00,,SCT110,0.00,VWS V14.01,2013-06-15 19:44:00,
2013-06-15 14:49:00,70.7,67.6,29.99,SW,225,1.0,1.0,90,0.01,,SCT110,0.01,VWS V14.01,2013-06-15 19:49:00,
2013-06-15 14:50:00,70.6,67.5,29.99,SW,225,0.0,3.0,90,0.01,,CLR,0.01,VWS V14.01,2013-06-15 19:50:00,
2013-06-15 14:54:00,70.5,67.4,29.98,SSW,205,1.0,3.0,90,0.01,,SCT110,0.01,VWS V14.01,2013-06-15 19:54:00,
2013-06-15 14:59:00,70.5,67.8,29.99,SSW,205,0.0,0.0,91,0.01,,SCT110,0.01,VWS V14.01,2013-06-15 19:59:00,
2013-06-15 15:00:00,70.5,67.8,29.99,SSW,205,0.0,3.0,91,0.01,,CLR,0.01,VWS V14.01,2013-06-15 20:00:00,
2013-06-15 15:04:00,70.7,68.3,29.98,SE,129,1.0,3.0,92,0.01,,SCT070,0.01,VWS V14.01,2013-06-15 20:04:00,
2013-06-15 15:09:00,71.0,68.2,29.97,SE,129,1.0,3.0,91,0.01,,SCT070,0.01,VWS V14.01,2013-06-15 20:09:00,
2013-06-15 15:10:00,71.0,68.2,29.97,SSE,158,1.0,3.0,91,0.01,,CLR,0.01,VWS V14.01,2013-06-15 20:10:00,
2013-06-15 15:14:00,71.3,68.5,29.97,West,262,0.0,3.0,91,0.01,,SCT070,0.01,VWS V14.01,2013-06-15 20:14:00,
2013-06-15 15:19:00,71.4,68.3,29.97,SSW,210,0.0,4.0,90,0.01,,SCT070,0.01,VWS V14.01,2013-06-15 20:19:00,
2013-06-15 15:20:00,71.4,68.3,29.97,SSE,153,2.0,5.0,90,0.01,,CLR,0.01,VWS V14.01,2013-06-15 20:20:00,
2013-06-15 15:24:00,71.5,67.8,29.98,SSW,196,0.0,4.0,88,0.01,,SCT090,0.01,VWS V14.01,2013-06-15 20:24:00,
2013-06-15 15:30:00,71.6,68.2,29.98,South,191,0.0,1.0,89,0.01,,SCT090,0.01,VWS V14.01,2013-06-15 20:30:00,
2013-06-15 15:35:00,71.8,68.4,29.97,SE,145,0.0,2.0,89,0.01,,SCT090,0.01,VWS V14.01,2013-06-15 20:35:00,
2013-06-15 15:40:00,71.9,68.8,29.97,SE,145,0.0,0.0,90,0.01,,SCT090,0.01,VWS V14.01,2013-06-15 20:40:00,
2013-06-15 15:45:00,71.8,68.4,29.97,SE,132,1.0,6.0,89,0.01,,SCT090,0.01,VWS V14.01,2013-06-15 20:45:00,
2013-06-15 15:50:00,71.9,68.5,29.96,SSE,156,2.0,3.0,89,0.00,,SCT090,0.01,VWS V14.01,2013-06-15 20:50:00,
2013-06-15 15:55:00,72.0,68.3,29.96,SSE,158,0.0,3.0,88,0.00,,SCT090,0.01,VWS V14.01,2013-06-15 20:55:00,
2013-06-15 16:00:00,71.8,68.1,29.96,SSE,156,3.0,3.0,88,0.00,,BKN060,0.01,VWS V14.01,2013-06-15 21:00:00,
2013-06-15 16:05:00,71.9,68.2,29.96,SSE,160,0.0,3.0,88,0.00,,BKN060,0.01,VWS V14.01,2013-06-15 21:05:00,
2013-06-15 16:10:00,72.2,68.8,29.95,SSE,165,0.0,0.0,89,0.00,,BKN060,0.01,VWS V14.01,2013-06-15 21:10:00,
2013-06-15 16:15:00,72.4,68.7,29.96,West,262,0.0,0.0,88,0.00,,BKN060,0.01,VWS V14.01,2013-06-15 21:15:00,
2013-06-15 16:20:00,72.2,68.4,29.95,West,260,0.0,2.0,88,0.00,,OVC060,0.01,VWS V14.01,2013-06-15 21:20:00,
2013-06-15 16:25:00,72.2,68.4,29.95,West,269,1.0,5.0,88,0.00,,OVC060,0.01,VWS V14.01,2013-06-15 21:25:00,
2013-06-15 16:30:00,72.2,68.1,29.94,ESE,122,2.0,5.0,87,0.00,,CLR,0.01,VWS V14.01,2013-06-15 21:30:00,
2013-06-15 16:31:00,72.4,68.7,29.94,ESE,117,0.0,3.0,88,0.00,,OVC060,0.01,VWS V14.01,2013-06-15 21:31:00,
2013-06-15 16:36:00,72.7,68.3,29.94,WSW,248,0.0,3.0,86,0.00,,OVC060,0.01,VWS V14.01,2013-06-15 21:36:00,
2013-06-15 16:40:00,72.8,68.4,29.94,WSW,246,0.0,3.0,86,0.00,,CLR,0.01,VWS V14.01,2013-06-15 21:40:00,
2013-06-15 16:41:00,72.9,68.5,29.94,WSW,245,0.0,1.0,86,0.00,,SCT060,0.01,VWS V14.01,2013-06-15 21:41:00,
2013-06-15 16:46:00,73.3,68.9,29.93,West,278,0.0,1.0,86,0.00,,SCT060,0.01,VWS V14.01,2013-06-15 21:46:00,
2013-06-15 16:50:00,73.3,68.5,29.93,West,260,0.0,1.0,85,0.00,,CLR,0.01,VWS V14.01,2013-06-15 21:50:00,
2013-06-15 16:51:00,73.3,68.9,29.93,SSE,156,1.0,2.0,86,0.00,,SCT060,0.01,VWS V14.01,2013-06-15 21:51:00,
2013-06-15 16:56:00,73.5,69.1,29.92,SW,229,0.0,2.0,86,0.00,,SCT060,0.01,VWS V14.01,2013-06-15 21:56:00,
2013-06-15 17:00:00,73.6,69.2,29.92,WSW,258,0.0,2.0,86,0.00,,CLR,0.01,VWS V14.01,2013-06-15 22:00:00,
2013-06-15 17:01:00,73.7,69.3,29.92,WSW,257,1.0,1.0,86,0.00,,SCT060,0.01,VWS V14.01,2013-06-15 22:01:00,
2013-06-15 17:06:00,73.6,69.2,29.92,WSW,245,2.0,3.0,86,0.00,,SCT060,0.01,VWS V14.01,2013-06-15 22:06:00,
2013-06-15 17:10:00,73.6,69.2,29.92,West,273,2.0,3.0,86,0.00,,CLR,0.01,VWS V14.01,2013-06-15 22:10:00,
2013-06-15 17:11:00,73.6,69.2,29.92,East,98,2.0,2.0,86,0.00,,SCT060,0.01,VWS V14.01,2013-06-15 22:11:00,
2013-06-15 17:16:00,73.6,69.2,29.91,SSW,211,0.0,3.0,86,0.00,,SCT060,0.01,VWS V14.01,2013-06-15 22:16:00,
2013-06-15 17:20:00,73.6,69.2,29.91,SSW,205,2.0,3.0,86,0.00,,CLR,0.01,VWS V14.01,2013-06-15 22:20:00,
2013-06-15 17:21:00,73.7,69.3,29.91,SSW,197,0.0,3.0,86,0.00,,CLR,0.01,VWS V14.01,2013-06-15 22:21:00,
2013-06-15 17:26:00,73.7,69.3,29.90,SW,228,2.0,3.0,86,0.00,,CLR,0.01,VWS V14.01,2013-06-15 22:26:00,
2013-06-15 17:30:00,73.6,69.2,29.90,SW,228,0.0,3.0,86,0.00,,CLR,0.01,VWS V14.01,2013-06-15 22:30:00,
2013-06-15 17:31:00,73.6,69.2,29.91,West,264,0.0,1.0,86,0.00,,CLR,0.01,VWS V14.01,2013-06-15 22:31:00,
2013-06-15 17:36:00,73.5,69.4,29.91,West,266,0.0,1.0,87,0.00,,CLR,0.01,VWS V14.01,2013-06-15 22:36:00,
2013-06-15 17:40:00,73.4,69.3,29.92,NNW,347,0.0,1.0,87,0.00,,CLR,0.01,VWS V14.01,2013-06-15 22:40:00,
2013-06-15 17:41:00,73.3,69.2,29.92,West,276,1.0,2.0,87,0.00,,CLR,0.01,VWS V14.01,2013-06-15 22:41:00,
2013-06-15 17:47:00,73.1,68.3,29.91,WNW,285,1.0,3.0,85,0.00,,CLR,0.01,VWS V14.01,2013-06-15 22:47:00,
2013-06-15 17:50:00,73.1,68.3,29.91,SSW,198,1.0,4.0,85,0.00,,CLR,0.01,VWS V14.01,2013-06-15 22:50:00,
2013-06-15 17:52:00,73.1,68.3,29.91,WSW,245,2.0,2.0,85,0.00,,CLR,0.01,VWS V14.01,2013-06-15 22:52:00,
2013-06-15 17:57:00,73.2,68.1,29.90,SW,232,2.0,3.0,84,0.00,,CLR,0.01,VWS V14.01,2013-06-15 22:57:00,
2013-06-15 18:00:00,73.3,68.2,29.91,West,267,1.0,3.0,84,0.00,,CLR,0.01,VWS V14.01,2013-06-15 23:00:00,
2013-06-15 18:02:00,73.7,68.6,29.91,West,280,2.0,4.0,84,0.00,,CLR,0.01,VWS V14.01,2013-06-15 23:02:00,
2013-06-15 18:07:00,74.1,69.0,29.90,West,269,1.0,4.0,84,0.00,,CLR,0.01,VWS V14.01,2013-06-15 23:07:00,
2013-06-15 18:10:00,74.1,68.6,29.90,West,264,0.0,4.0,83,0.00,,CLR,0.01,VWS V14.01,2013-06-15 23:10:00,
2013-06-15 18:12:00,74.1,69.0,29.89,West,267,1.0,2.0,84,0.00,,CLR,0.01,VWS V14.01,2013-06-15 23:12:00,
2013-06-15 18:17:00,74.1,69.3,29.89,WSW,248,1.0,2.0,85,0.00,,CLR,0.01,VWS V14.01,2013-06-15 23:17:00,
2013-06-15 18:20:00,74.2,69.1,29.89,WSW,257,1.0,3.0,84,0.00,,CLR,0.01,VWS V14.01,2013-06-15 23:20:00,
2013-06-15 18:22:00,74.4,69.3,29.89,WSW,251,2.0,3.0,84,0.00,,CLR,0.01,VWS V14.01,2013-06-15 23:22:00,
2013-06-15 18:27:00,74.6,69.1,29.88,WSW,239,0.0,3.0,83,0.00,,CLR,0.01,VWS V14.01,2013-06-15 23:27:00,
2013-06-15 18:30:00,74.6,69.1,29.88,West,276,1.0,3.0,83,0.00,,CLR,0.01,VWS V14.01,2013-06-15 23:30:00,
2013-06-15 18:32:00,74.6,69.4,29.88,West,274,0.0,1.0,84,0.00,,CLR,0.01,VWS V14.01,2013-06-15 23:32:00,
2013-06-15 18:37:00,74.5,69.3,29.88,West,262,0.0,1.0,84,0.00,,CLR,0.01,VWS V14.01,2013-06-15 23:37:00,
2013-06-15 18:40:00,74.5,69.3,29.88,West,259,0.0,1.0,84,0.00,,CLR,0.01,VWS V14.01,2013-06-15 23:40:00,
2013-06-15 18:42:00,74.7,69.6,29.89,West,260,0.0,0.0,84,0.00,,CLR,0.01,VWS V14.01,2013-06-15 23:42:00,
2013-06-15 18:47:00,74.7,69.6,29.90,West,278,0.0,0.0,84,0.00,,CLR,0.01,VWS V14.01,2013-06-15 23:47:00,
2013-06-15 18:50:00,74.7,69.6,29.90,SW,233,2.0,3.0,84,0.00,,CLR,0.01,VWS V14.01,2013-06-15 23:50:00,
2013-06-15 18:52:00,74.7,69.6,29.90,WSW,245,2.0,3.0,84,0.00,,CLR,0.01,VWS V14.01,2013-06-15 23:52:00,
2013-06-15 18:57:00,74.8,69.3,29.90,West,276,0.0,4.0,83,0.00,,CLR,0.01,VWS V14.01,2013-06-15 23:57:00,
2013-06-15 19:00:00,74.8,69.3,29.90,SW,235,2.0,4.0,83,0.00,,CLR,0.01,VWS V14.01,2013-06-16 00:00:00,
2013-06-15 19:03:00,74.8,69.3,29.90,NNW,327,0.0,3.0,83,0.00,,CLR,0.01,VWS V14.01,2013-06-16 00:03:00,
2013-06-15 19:08:00,74.8,69.3,29.90,SSW,205,0.0,5.0,83,0.00,,CLR,0.01,VWS V14.01,2013-06-16 00:08:00,
2013-06-15 19:10:00,74.8,69.3,29.90,SSW,205,0.0,5.0,83,0.00,,CLR,0.01,VWS V14.01,2013-06-16 00:10:00,
2013-06-15 19:13:00,74.7,69.2,29.90,West,269,2.0,3.0,83,0.00,,CLR,0.01,VWS V14.01,2013-06-16 00:13:00,
2013-06-15 19:18:00,74.7,69.2,29.90,SW,236,2.0,5.0,83,0.00,,CLR,0.01,VWS V14.01,2013-06-16 00:18:00,
2013-06-15 19:20:00,74.7,69.2,29.90,WSW,238,1.0,5.0,83,0.00,,CLR,0.01,VWS V14.01,2013-06-16 00:20:00,
2013-06-15 19:23:00,74.7,69.2,29.90,WSW,247,1.0,3.0,83,0.00,,CLR,0.01,VWS V14.01,2013-06-16 00:23:00,
2013-06-15 19:28:00,74.6,69.1,29.90,WSW,246,0.0,3.0,83,0.00,,CLR,0.01,VWS V14.01,2013-06-16 00:28:00,
2013-06-15 19:30:00,74.7,69.2,29.90,SW,232,1.0,3.0,83,0.00,,CLR,0.01,VWS V14.01,2013-06-16 00:30:00,
2013-06-15 19:33:00,74.6,69.1,29.91,WSW,241,0.0,3.0,83,0.00,,CLR,0.01,VWS V14.01,2013-06-16 00:33:00,
2013-06-15 19:38:00,74.6,69.1,29.91,SW,224,0.0,3.0,83,0.00,,CLR,0.01,VWS V14.01,2013-06-16 00:38:00,
2013-06-15 19:40:00,74.6,69.1,29.91,SW,224,1.0,3.0,83,0.00,,CLR,0.01,VWS V14.01,2013-06-16 00:40:00,
2013-06-15 19:43:00,74.6,69.1,29.91,SSE,160,0.0,1.0,83,0.00,,CLR,0.01,VWS V14.01,2013-06-16 00:43:00,
2013-06-15 19:48:00,74.6,69.1,29.91,West,278,0.0,1.0,83,0.00,,CLR,0.01,VWS V14.01,2013-06-16 00:48:00,
2013-06-15 19:50:00,74.6,69.1,29.91,West,278,0.0,1.0,83,0.00,,CLR,0.01,VWS V14.01,2013-06-16 00:50:00,
2013-06-15 19:53:00,74.6,69.1,29.91,WSW,246,0.0,1.0,83,0.00,,CLR,0.01,VWS V14.01,2013-06-16 00:53:00,
2013-06-15 19:58:00,74.5,69.0,29.92,WSW,245,0.0,0.0,83,0.00,,CLR,0.01,VWS V14.01,2013-06-16 00:58:00,
2013-06-15 20:00:00,74.5,69.0,29.92,WSW,248,0.0,1.0,83,0.00,,CLR,0.01,VWS V14.01,2013-06-16 01:00:00,
2013-06-15 20:03:00,74.4,69.3,29.92,WSW,246,0.0,0.0,84,0.00,,CLR,0.01,VWS V14.01,2013-06-16 01:03:00,
2013-06-15 20:08:00,74.4,69.3,29.92,ESE,117,0.0,0.0,84,0.00,,CLR,0.01,VWS V14.01,2013-06-16 01:08:00,
2013-06-15 20:10:00,74.4,69.3,29.92,ESE,117,0.0,1.0,84,0.00,,CLR,0.01,VWS V14.01,2013-06-16 01:10:00,
2013-06-15 20:13:00,74.4,69.3,29.93,SW,221,0.0,0.0,84,0.00,,CLR,0.01,VWS V14.01,2013-06-16 01:13:00,
2013-06-15 20:19:00,74.3,69.5,29.93,SSW,210,0.0,0.0,85,0.00,,CLR,0.01,VWS V14.01,2013-06-16 01:19:00,
2013-06-15 20:20:00,74.3,69.5,29.93,SSW,209,0.0,0.0,85,0.00,,CLR,0.01,VWS V14.01,2013-06-16 01:20:00,
2013-06-15 20:24:00,74.0,69.2,29.93,WSW,246,0.0,1.0,85,0.00,,CLR,0.01,VWS V14.01,2013-06-16 01:24:00,
2013-06-15 20:29:00,73.8,69.3,29.93,WSW,240,1.0,1.0,86,0.00,,CLR,0.01,VWS V14.01,2013-06-16 01:29:00,
2013-06-15 20:30:00,73.8,69.3,29.93,WSW,240,1.0,2.0,86,0.00,,CLR,0.01,VWS V14.01,2013-06-16 01:30:00,
2013-06-15 20:34:00,73.6,69.2,29.92,WSW,240,0.0,2.0,86,0.00,,CLR,0.01,VWS V14.01,2013-06-16 01:34:00,
2013-06-15 20:39:00,73.3,69.2,29.92,SSW,205,0.0,0.0,87,0.00,,CLR,0.01,VWS V14.01,2013-06-16 01:39:00,
2013-06-15 20:40:00,73.4,69.3,29.92,SW,224,0.0,2.0,87,0.00,,CLR,0.01,VWS V14.01,2013-06-16 01:40:00,
2013-06-15 20:44:00,72.9,69.1,29.91,WSW,255,2.0,5.0,88,0.00,,SCT120,0.01,VWS V14.01,2013-06-16 01:44:00,
2013-06-15 20:49:00,73.0,68.9,29.91,West,267,4.0,5.0,87,0.00,,SCT120,0.01,VWS V14.01,2013-06-16 01:49:00,
2013-06-15 20:50:00,72.9,69.1,29.91,WSW,254,1.0,6.0,88,0.00,,CLR,0.01,VWS V14.01,2013-06-16 01:50:00,
2013-06-15 20:54:00,73.3,69.2,29.92,NW,320,2.0,5.0,87,0.01,,SCT120,0.02,VWS V14.01,2013-06-16 01:54:00,
2013-06-15 20:59:00,73.2,69.4,29.93,WSW,250,2.0,2.0,88,0.01,,SCT120,0.02,VWS V14.01,2013-06-16 01:59:00,
2013-06-15 21:00:00,73.2,69.1,29.92,WSW,249,2.0,5.0,87,0.01,,CLR,0.02,VWS V14.01,2013-06-16 02:00:00,
2013-06-15 21:04:00,72.9,69.1,29.94,West,264,0.0,6.0,88,0.01,,BKN110,0.02,VWS V14.01,2013-06-16 02:04:00,
2013-06-15 21:09:00,72.7,69.3,29.94,West,264,0.0,0.0,89,0.01,,BKN110,0.02,VWS V14.01,2013-06-16 02:09:00,
2013-06-15 21:10:00,72.7,69.3,29.94,West,264,0.0,6.0,89,0.01,,CLR,0.02,VWS V14.01,2013-06-16 02:10:00,
2013-06-15 21:14:00,72.3,69.2,29.95,WNW,297,0.0,0.0,90,0.01,,BKN110,0.02,VWS V14.01,2013-06-16 02:14:00,
2013-06-15 21:19:00,72.1,69.7,29.95,WNW,291,3.0,4.0,92,0.02,,BKN110,0.03,VWS V14.01,2013-06-16 02:19:00,
2013-06-15 21:20:00,72.1,69.3,29.95,WNW,288,2.0,4.0,91,0.02,,CLR,0.03,VWS V14.01,2013-06-16 02:20:00,
2013-06-15 21:24:00,72.0,69.6,29.95,WNW,283,2.0,5.0,92,0.02,,-RA,0.03,VWS V14.01,2013-06-16 02:24:00,
2013-06-15 21:30:00,72.0,69.9,29.97,NW,311,3.0,5.0,93,0.03,,-RA,0.04,VWS V14.01,2013-06-16 02:30:00,
2013-06-15 21:35:00,71.7,69.6,29.98,NW,319,1.0,11.0,93,0.04,,-RA,0.05,VWS V14.01,2013-06-16 02:35:00,
2013-06-15 21:40:00,71.8,70.0,30.00,WNW,287,2.0,4.0,94,0.06,,SCT047,0.07,VWS V14.01,2013-06-16 02:40:00,
2013-06-15 21:45:00,71.3,69.2,30.02,NW,312,3.0,7.0,93,0.08,,SCT047,0.09,VWS V14.01,2013-06-16 02:45:00,
2013-06-15 21:50:00,69.8,67.4,30.03,WSW,240,4.0,14.0,92,0.11,,SCT047,0.12,VWS V14.01,2013-06-16 02:50:00,
2013-06-15 21:55:00,68.8,66.7,30.04,WNW,303,2.0,18.0,93,0.18,,SCT047,0.19,VWS V14.01,2013-06-16 02:55:00,
2013-06-15 22:00:00,68.2,66.4,30.04,West,260,4.0,7.0,94,0.21,,BKN046,0.23,VWS V14.01,2013-06-16 03:00:00,
2013-06-15 22:05:00,67.9,66.4,30.04,WNW,285,2.0,9.0,95,0.25,,BKN046,0.27,VWS V14.01,2013-06-16 03:05:00,
2013-06-15 22:10:00,67.6,66.1,30.04,NW,304,1.0,3.0,95,0.27,,BKN046,0.29,VWS V14.01,2013-06-16 03:10:00,
2013-06-15 22:15:00,67.4,65.9,30.05,WNW,283,1.0,8.0,95,0.29,,BKN046,0.31,VWS V14.01,2013-06-16 03:15:00,
2013-06-15 22:20:00,67.4,66.2,30.05,WNW,288,2.0,5.0,96,0.30,,OVC065,0.33,VWS V14.01,2013-06-16 03:20:00,
2013-06-15 22:25:00,67.2,66.0,30.05,West,264,2.0,8.0,96,0.31,,OVC065,0.34,VWS V14.01,2013-06-16 03:25:00,
2013-06-15 22:30:00,67.1,65.9,30.05,WNW,284,1.0,4.0,96,0.32,,OVC065,0.36,VWS V14.01,2013-06-16 03:30:00,
2013-06-15 22:36:00,66.9,65.7,30.05,WNW,295,0.0,9.0,96,0.33,,OVC065,0.37,VWS V14.01,2013-06-16 03:36:00,
2013-06-15 22:40:00,66.7,65.5,30.04,WNW,294,2.0,9.0,96,0.34,,CLR,0.38,VWS V14.01,2013-06-16 03:40:00,
2013-06-15 22:41:00,66.7,65.5,30.04,West,278,2.0,10.0,96,0.34,,RA,0.40,VWS V14.01,2013-06-16 03:41:00,
2013-06-15 22:46:00,66.6,65.4,30.04,NW,305,1.0,10.0,96,0.37,,RA,0.43,VWS V14.01,2013-06-16 03:46:00,
2013-06-15 22:50:00,66.6,65.4,30.04,WNW,298,2.0,10.0,96,0.38,,CLR,0.44,VWS V14.01,2013-06-16 03:50:00,
2013-06-15 22:51:00,66.6,65.4,30.04,WSW,243,9.0,9.0,96,0.34,,RA,0.45,VWS V14.01,2013-06-16 03:51:00,
2013-06-15 22:56:00,66.6,65.4,30.04,West,281,3.0,10.0,96,0.36,,RA,0.47,VWS V14.01,2013-06-16 03:56:00,
2013-06-15 23:00:00,66.6,65.4,30.04,WNW,283,0.0,10.0,96,0.38,,CLR,0.49,VWS V14.01,2013-06-16 04:00:00,
2013-06-15 23:01:00,66.6,65.4,30.03,WSW,241,5.0,7.0,96,0.28,, +RA,0.50,VWS V14.01,2013-06-16 04:01:00,
2013-06-15 23:02:00,66.6,65.7,30.03,WSW,249,4.0,7.0,97,0.28,, +RA,0.50,VWS V14.01,2013-06-16 04:02:00,
2013-06-15 23:04:00,66.6,65.7,30.03,West,281,1.0,7.0,97,0.29,, +RA,0.51,VWS V14.01,2013-06-16 04:04:00,
2013-06-15 23:09:00,66.6,65.7,30.03,NW,318,0.0,2.0,97,0.25,, +RA,0.53,VWS V14.01,2013-06-16 04:09:00,
2013-06-15 23:10:00,66.6,65.7,30.03,WNW,288,1.0,7.0,97,0.31,,CLR,0.53,VWS V14.01,2013-06-16 04:10:00,
2013-06-15 23:14:00,66.6,65.7,30.02,West,271,0.0,8.0,97,0.25,, +RA,0.53,VWS V14.01,2013-06-16 04:14:00,
2013-06-15 23:19:00,66.6,65.7,30.01,WNW,290,1.0,1.0,97,0.20,, +RA,0.53,VWS V14.01,2013-06-16 04:19:00,
2013-06-15 23:20:00,66.6,65.7,30.01,WNW,295,1.0,8.0,97,0.25,,CLR,0.53,VWS V14.01,2013-06-16 04:20:00,
2013-06-15 23:24:00,66.6,65.7,30.01,West,277,1.0,4.0,97,0.20,,RA,0.53,VWS V14.01,2013-06-16 04:24:00,
2013-06-15 23:29:00,66.6,65.7,30.00,West,265,2.0,2.0,97,0.18,,RA,0.53,VWS V14.01,2013-06-16 04:29:00,
2013-06-15 23:30:00,66.6,65.7,30.00,WSW,249,1.0,4.0,97,0.20,,CLR,0.53,VWS V14.01,2013-06-16 04:30:00,
2013-06-15 23:34:00,66.6,65.7,30.00,WNW,282,0.0,2.0,97,0.18,,RA,0.53,VWS V14.01,2013-06-16 04:34:00,
2013-06-15 23:39:00,66.6,65.7,30.00,WSW,248,2.0,2.0,97,0.15,,RA,0.53,VWS V14.01,2013-06-16 04:39:00,
2013-06-15 23:40:00,66.5,65.6,30.00,West,267,0.0,3.0,97,0.18,,CLR,0.53,VWS V14.01,2013-06-16 04:40:00,
2013-06-15 23:44:00,66.6,65.7,30.00,WSW,240,3.0,5.0,97,0.15,,-RA,0.53,VWS V14.01,2013-06-16 04:44:00,
2013-06-15 23:49:00,66.6,65.7,29.99,West,271,3.0,5.0,97,0.09,,-RA,0.53,VWS V14.01,2013-06-16 04:49:00,
2013-06-15 23:50:00,66.6,65.7,29.99,WSW,245,3.0,5.0,97,0.15,,CLR,0.53,VWS V14.01,2013-06-16 04:50:00,
2013-06-15 23:54:00,66.5,65.6,29.98,West,260,2.0,9.0,97,0.09,,-RA,0.53,VWS V14.01,2013-06-16 04:54:00,
2013-06-15 23:59:00,66.4,65.5,29.97,WSW,250,2.0,2.0,97,0.04,,-RA,0.00,VWS V14.01,2013-06-16 04:59:00,